Location: Boiro
(42.6475°N, 8.8834°W)
Time: 18:50:50
(UTC+01:00)

Explorer 7 - Pass Details

Date: 09 December 2021
Orbit: 483 x 674 km, 50.3° (Epoch: 26 January)

Event Time Altitude Azimuth Distance (km) Brightness Sun altitude
Rises 09:53:04 0° 300° (WNW) 2,739 9.7 7.9°
Reaches altitude 10° 09:55:27 10° 307° (NW) 1,808 8.9 8.3°
Maximum altitude 09:59:23 44° 20° (NNE) 724 7.4 8.8°
Drops below altitude 10° 10:03:06 10° 95° (E) 1,711 10.3 9.3°
Sets 10:05:18 0° 102° (ESE) 2,573 11.3 9.6°
